Location: Bucharest
(44.4268°N, 26.1025°E)
Time: 00:51:56
(UTC+03:00)

O/OREOS (USA 219) - Pass Details

Date: 11 July 2022
Orbit: 621 x 646 km, 72.0° (Epoch: 22 May)

Event Time Altitude Azimuth Distance (km) Brightness Sun altitude
Rises 23:32:23 0° 335° (NNW) 2,968 ? -19.1°
Reaches altitude 10° 23:34:40 10° 334° (NNW) 2,054 ? -19.2°
Maximum altitude 23:39:18 82° 247° (WSW) 658 ? -19.6°
Enters shadow 23:40:39 46° 167° (SSE) 870 ? -19.7°
